Date,TemperatureHighF,TemperatureAvgF,TemperatureLowF,DewpointHighF,DewpointAvgF,DewpointLowF,HumidityHigh,HumidityAvg,HumidityLow,PressureMaxIn,PressureMinIn,WindSpeedMaxMPH,WindSpeedAvgMPH,GustSpeedMaxMPH,PrecipitationSumIn
2013-8-1,77.5,67.6,58.7,64.6,59.3,52.4,96,76,46,28.95,28.90,11,3,14,0.01
2013-8-2,70.5,63.0,52.4,64.9,57.6,51.1,96,82,65,28.96,28.87,13,2,18,0.00
2013-8-3,77.3,68.1,55.9,62.8,56.1,47.0,98,69,36,29.07,28.91,11,3,16,0.00
2013-8-4,73.1,63.1,54.4,57.3,52.9,49.0,93,71,43,29.18,29.07,12,4,18,0.00
2013-8-5,70.3,61.4,49.3,58.1,53.5,47.8,96,76,50,29.13,28.98,7,1,9,0.00
2013-8-6,78.0,68.3,61.6,68.7,62.4,56.5,94,82,63,28.98,28.91,12,5,17,0.02
2013-8-7,82.4,70.4,62.6,71.6,66.3,62.0,98,87,61,28.96,28.86,12,3,14,0.24
2013-8-8,77.8,69.3,64.0,68.9,62.4,56.6,96,79,58,29.03,28.93,8,3,12,0.00
2013-8-9,79.6,68.7,58.7,61.8,57.3,51.4,95,69,41,29.03,28.97,9,2,13,0.00
2013-8-10,77.3,66.8,57.6,62.1,58.9,55.1,95,77,48,29.15,29.03,7,1,9,0.00
2013-8-11,78.3,66.5,54.8,61.5,57.0,53.7,96,74,44,29.13,29.06,9,2,12,0.00
2013-8-12,73.5,65.3,61.7,68.3,62.7,58.0,97,91,79,29.08,28.86,8,2,12,1.90
2013-8-13,67.1,60.5,50.5,64.8,51.4,44.6,98,73,46,29.07,28.86,15,6,20,0.02
2013-8-14,69.9,57.2,48.1,53.8,47.6,44.1,94,72,44,29.18,29.07,11,4,15,0.00
2013-8-15,72.3,58.9,45.2,55.3,49.5,43.8,97,74,42,29.18,29.11,9,1,11,0.00
2013-8-16,77.8,63.9,50.7,59.1,52.8,48.9,96,70,39,29.21,29.12,8,2,10,0.00
2013-8-17,77.6,63.6,48.7,59.0,54.2,47.2,96,74,45,29.28,29.20,8,1,10,0.00
2013-8-18,81.6,66.0,52.3,64.3,56.5,51.0,96,74,40,29.23,29.13,7,1,10,0.00
2013-8-19,80.9,67.3,52.7,64.1,57.3,51.3,96,73,43,29.14,29.06,11,1,14,0.00
2013-8-20,84.2,71.9,56.1,68.1,62.8,54.6,96,75,48,29.17,29.08,8,1,11,0.00
2013-8-21,84.5,69.4,61.2,69.2,63.6,59.7,97,83,56,29.15,29.02,12,2,15,0.00
2013-8-22,78.1,70.8,66.0,69.5,65.5,64.0,94,83,63,29.08,28.98,8,2,12,0.00
2013-8-23,80.2,69.1,55.6,66.7,55.6,42.7,96,67,28,29.21,29.05,10,3,13,0.00
2013-8-24,80.3,66.0,50.6,62.0,55.3,49.0,95,71,40,29.32,29.21,8,2,10,0.00
2013-8-25,84.5,69.5,52.7,65.1,59.0,50.9,96,72,46,29.30,29.18,10,2,14,0.00
2013-8-26,86.2,76.0,67.3,71.6,65.5,59.8,94,70,57,29.19,29.01,9,2,15,0.00
2013-8-27,85.8,76.2,68.1,76.5,71.9,66.8,96,87,72,29.05,27.75,17,3,21,0.56
2013-8-28,79.8,75.3,66.6,73.6,71.2,64.8,97,87,74,29.03,28.82,9,4,12,0.37
2013-8-29,85.2,72.9,61.3,72.1,66.9,60.4,98,82,57,29.11,29.03,7,2,9,0.01
2013-8-30,85.6,74.5,59.8,71.5,66.4,59.0,97,77,54,29.03,28.78,14,3,18,0.00
2013-8-31,81.0,73.8,66.4,71.7,67.0,63.0,94,80,55,28.88,28.78,8,3,13,0.00